Location: Unspecified
(50.7693°N, 0.0000°E)
Time: 05:31:21
(UTC+00:00)

Transit 2A - Pass Details

Date: 15 August 2020
Orbit: 591 x 967 km, 66.7° (Epoch: 20 September)

Event Time Altitude Azimuth Distance (km) Brightness Sun altitude
Rises 01:26:49 0° 318° (NW) 3,657 9.9 -22.8°
Reaches altitude 10° 01:29:44 10° 329° (NNW) 2,717 9.3 -22.7°
Maximum altitude 01:35:21 31° 30° (NNE) 1,634 8.3 -22.3°
Drops below altitude 10° 01:40:48 10° 91° (E) 2,641 9.1 -21.9°
Sets 01:43:35 0° 102° (ESE) 3,540 9.6 -21.8°
